| time (UTC) | temp F | wind direction | speed knots | gust knots | rain 1hr in | rain 24hr in | rain mn in | humidity % | barometer mb |
| 20260507065628 | 56 | 110 | 0.0 | 0.9 | 0.00 | 0.00 | 0.00 | 88 | 1018.9 |
| 20260507065125 | 56 | 91 | 0.0 | 0.0 | 0.00 | 0.00 | 0.00 | 88 | 1018.9 |
| 20260507064623 | 56 | 77 | 0.9 | 0.9 | 0.00 | 0.00 | 0.00 | 88 | 1018.8 |
| 20260507064121 | 56 | 72 | 0.0 | 0.0 | 0.00 | 0.00 | 0.00 | 87 | 1018.9 |
| 20260507063618 | 56 | 76 | 0.0 | 0.0 | 0.00 | 0.00 | 0.00 | 87 | 1018.9 |
| 20260507063115 | 56 | 66 | 0.0 | 0.0 | 0.00 | 0.00 | 0.00 | 87 | 1018.5 |
| 20260507062612 | 56 | 75 | 0.0 | 0.0 | 0.00 | 0.00 | 0.00 | 87 | 1018.5 |
| 20260507062110 | 56 | 89 | 0.0 | 0.9 | 0.00 | 0.00 | 0.00 | 86 | 1018.6 |
| 20260507061607 | 57 | 66 | 0.9 | 0.9 | 0.00 | 0.00 | 0.00 | 86 | 1018.8 |
| 20260507061105 | 57 | 63 | 0.0 | 0.9 | 0.00 | 0.00 | 0.00 | 86 | 1018.8 |
| 20260507060603 | 57 | 67 | 0.0 | 0.9 | 0.00 | 0.00 | 0.00 | 85 | 1018.6 |
| 20260507060059 | 57 | 66 | 0.9 | 1.7 | 0.00 | 0.00 | 0.00 | 85 | 1018.6 |
| 20260507055554 | 57 | 83 | 0.0 | 0.0 | 0.00 | 0.00 | 0.00 | 84 | 1018.7 |
| 20260507055051 | 57 | 74 | 0.0 | 0.9 | 0.00 | 0.00 | 0.00 | 85 | 1018.6 |
| 20260507054547 | 57 | 83 | 0.9 | 1.7 | 0.00 | 0.00 | 0.00 | 85 | 1018.8 |
| 20260507054044 | 57 | 85 | 0.9 | 0.9 | 0.00 | 0.00 | 0.00 | 85 | 1018.6 |
| 20260507053542 | 57 | 88 | 0.0 | 0.0 | 0.00 | 0.00 | 0.00 | 85 | 1018.7 |
| 20260507053040 | 57 | 61 | 0.9 | 0.9 | 0.00 | 0.00 | 0.00 | 84 | 1018.5 |
| 20260507052537 | 57 | 44 | 0.9 | 1.7 | 0.00 | 0.00 | 0.00 | 85 | 1018.6 |
| 20260507052034 | 58 | 76 | 0.9 | 0.9 | 0.00 | 0.00 | 0.00 | 86 | 1018.7 |
| 20260507051532 | 58 | 77 | 0.9 | 0.9 | 0.00 | 0.00 | 0.00 | 85 | 1018.8 |
| 20260507051028 | 58 | 62 | 0.9 | 1.7 | 0.00 | 0.00 | 0.00 | 85 | 1019.0 |
| 20260507050525 | 58 | 91 | 0.9 | 0.9 | 0.00 | 0.00 | 0.00 | 85 | 1018.7 |
| 20260507050022 | 58 | 80 | 0.0 | 0.0 | 0.00 | 0.16 | 0.16 | 84 | 1018.6 |
| 20260507045518 | 59 | 132 | 0.9 | 0.9 | 0.00 | 0.16 | 0.16 | 84 | 1018.8 |
| 20260507045016 | 59 | 149 | 0.0 | 0.9 | 0.00 | 0.16 | 0.16 | 83 | 1018.9 |
| 20260507044512 | 59 | 64 | 0.9 | 1.7 | 0.00 | 0.16 | 0.16 | 83 | 1018.6 |
| 20260507044009 | 59 | 163 | 0.0 | 1.7 | 0.00 | 0.16 | 0.16 | 83 | 1018.7 |
| 20260507043505 | 59 | 146 | 0.9 | 0.9 | 0.00 | 0.16 | 0.16 | 84 | 1018.7 |
| 20260507043001 | 59 | 91 | 0.9 | 0.9 | 0.00 | 0.16 | 0.16 | 84 | 1018.8 |
| 20260507042458 | 59 | 72 | 2.6 | 4.3 | 0.00 | 0.16 | 0.16 | 83 | 1018.8 |
| 20260507041954 | 59 | 347 | 1.7 | 2.6 | 0.00 | 0.16 | 0.16 | 83 | 1018.9 |
| 20260507041451 | 59 | 58 | 0.9 | 1.7 | 0.00 | 0.16 | 0.16 | 83 | 1019.0 |
| 20260507040948 | 59 | 79 | 0.9 | 0.9 | 0.00 | 0.16 | 0.16 | 83 | 1019.3 |
| 20260507040443 | 59 | 17 | 0.0 | 0.0 | 0.00 | 0.16 | 0.16 | 83 | 1019.1 |
| 20260507035939 | 59 | 23 | 0.9 | 0.9 | 0.00 | 0.16 | 0.16 | 83 | 1019.2 |
| 20260507035436 | 59 | 73 | 1.7 | 1.7 | 0.00 | 0.16 | 0.16 | 83 | 1019.1 |
| 20260507034933 | 59 | 330 | 0.9 | 0.9 | 0.00 | 0.16 | 0.16 | 83 | 1019.2 |
| 20260507034430 | 59 | 348 | 2.6 | 2.6 | 0.00 | 0.16 | 0.16 | 83 | 1019.1 |
| 20260507033928 | 59 | 315 | 1.7 | 1.7 | 0.00 | 0.16 | 0.16 | 83 | 1019.1 |
| 20260507033425 | 59 | 340 | 1.7 | 1.7 | 0.00 | 0.16 | 0.16 | 83 | 1018.9 |
| 20260507032922 | 59 | 58 | 3.5 | 5.2 | 0.00 | 0.16 | 0.16 | 83 | 1018.9 |
| 20260507032419 | 59 | 328 | 1.7 | 2.6 | 0.00 | 0.16 | 0.16 | 83 | 1018.8 |
| 20260507031915 | 59 | 312 | 1.7 | 1.7 | 0.00 | 0.16 | 0.16 | 84 | 1019.0 |
| 20260507031412 | 59 | 281 | 1.7 | 1.7 | 0.00 | 0.16 | 0.16 | 84 | 1019.0 |
| 20260507030909 | 59 | 299 | 0.0 | 0.0 | 0.00 | 0.16 | 0.16 | 84 | 1018.7 |
| 20260507030406 | 59 | 306 | 0.9 | 1.7 | 0.00 | 0.16 | 0.16 | 83 | 1018.7 |
| 20260507025903 | 59 | 31 | 0.0 | 0.0 | 0.00 | 0.16 | 0.16 | 83 | 1018.4 |
| 20260507025400 | 59 | 9 | 0.0 | 0.9 | 0.00 | 0.16 | 0.16 | 83 | 1018.4 |
| 20260507024858 | 59 | 297 | 0.9 | 1.7 | 0.00 | 0.16 | 0.16 | 84 | 1018.3 |
| 20260507024355 | 59 | 335 | 1.7 | 2.6 | 0.00 | 0.16 | 0.16 | 84 | 1018.1 |
| 20260507023851 | 59 | 17 | 0.0 | 0.9 | 0.00 | 0.16 | 0.16 | 84 | 1017.9 |
| 20260507023348 | 59 | 316 | 0.0 | 0.0 | 0.00 | 0.16 | 0.16 | 84 | 1018.1 |
| 20260507022845 | 59 | 105 | 0.0 | 0.9 | 0.00 | 0.16 | 0.16 | 84 | 1017.9 |
| 20260507022342 | 59 | 29 | 0.9 | 0.9 | 0.00 | 0.16 | 0.16 | 84 | 1017.7 |
| 20260507021837 | 59 | 355 | 0.0 | 0.9 | 0.00 | 0.16 | 0.16 | 84 | 1017.8 |
| 20260507021333 | 59 | 34 | 0.0 | 0.9 | 0.00 | 0.16 | 0.16 | 84 | 1017.8 |
| 20260507020831 | 59 | 71 | 0.0 | 0.0 | 0.00 | 0.16 | 0.16 | 85 | 1017.4 |
| 20260507020328 | 59 | 58 | 0.9 | 0.9 | 0.00 | 0.16 | 0.16 | 85 | 1017.5 |
| 20260507015825 | 59 | 72 | 0.9 | 0.9 | 0.00 | 0.16 | 0.16 | 85 | 1017.2 |
| 20260507015323 | 59 | 299 | 0.0 | 0.0 | 0.00 | 0.16 | 0.16 | 85 | 1017.3 |
| 20260507014820 | 59 | 31 | 2.6 | 2.6 | 0.00 | 0.16 | 0.16 | 85 | 1017.0 |
| 20260507014316 | 59 | 351 | 1.7 | 4.3 | 0.00 | 0.16 | 0.16 | 85 | 1017.1 |
| 20260507013812 | 59 | 310 | 0.9 | 4.3 | 0.00 | 0.16 | 0.16 | 86 | 1016.9 |
| 20260507013309 | 60 | 30 | 1.7 | 1.7 | 0.00 | 0.16 | 0.16 | 86 | 1017.0 |
| 20260507012807 | 60 | 98 | 0.9 | 0.9 | 0.00 | 0.16 | 0.16 | 86 | 1016.8 |
| 20260507012306 | 60 | 283 | 0.9 | 0.9 | 0.00 | 0.16 | 0.16 | 86 | 1016.6 |
| 20260507011800 | 60 | 270 | 0.0 | 0.0 | 0.00 | 0.16 | 0.16 | 86 | 1016.8 |
| 20260507011256 | 60 | 56 | 0.0 | 0.9 | 0.00 | 0.16 | 0.16 | 86 | 1016.6 |
| 20260507010756 | 60 | 34 | 1.7 | 1.7 | 0.00 | 0.16 | 0.16 | 86 | 1016.4 |
| 20260507010252 | 60 | 300 | 0.0 | 0.9 | 0.00 | 0.16 | 0.16 | 86 | 1016.3 |
| 20260507005750 | 60 | 304 | 0.9 | 1.7 | 0.00 | 0.16 | 0.16 | 86 | 1016.4 |
| 20260507005246 | 60 | 278 | 0.0 | 0.0 | 0.00 | 0.16 | 0.16 | 86 | 1016.5 |
| 20260507004743 | 60 | 28 | 0.0 | 0.9 | 0.00 | 0.16 | 0.16 | 86 | 1016.4 |
| 20260507004241 | 60 | 326 | 0.9 | 0.9 | 0.00 | 0.16 | 0.16 | 86 | 1016.4 |
| 20260507003736 | 59 | 309 | 0.0 | 0.9 | 0.00 | 0.16 | 0.16 | 86 | 1016.2 |
| 20260507003232 | 59 | 32 | 0.0 | 0.0 | 0.00 | 0.16 | 0.16 | 85 | 1016.0 |
| 20260507002728 | 59 | 284 | 0.9 | 0.9 | 0.00 | 0.16 | 0.16 | 85 | 1016.1 |
| 20260507002224 | 60 | 68 | 0.9 | 1.7 | 0.00 | 0.16 | 0.16 | 85 | 1015.8 |
| 20260507001721 | 60 | 23 | 0.9 | 0.9 | 0.00 | 0.16 | 0.16 | 85 | 1016.1 |
| 20260507001218 | 60 | 7 | 0.0 | 0.9 | 0.00 | 0.16 | 0.16 | 85 | 1016.1 |
| 20260507000715 | 60 | 42 | 1.7 | 1.7 | 0.00 | 0.16 | 0.16 | 85 | 1015.8 |
| 20260507000212 | 60 | 351 | 2.6 | 2.6 | 0.00 | 0.16 | 0.16 | 85 | 1015.6 |
| 20260506235708 | 60 | 78 | 0.0 | 0.9 | 0.00 | 0.16 | 0.16 | 84 | 1015.7 |
| 20260506235203 | 60 | 156 | 0.0 | 0.9 | 0.00 | 0.16 | 0.16 | 84 | 1015.6 |
| 20260506234700 | 60 | 40 | 0.9 | 1.7 | 0.00 | 0.16 | 0.16 | 84 | 1015.8 |
| 20260506234157 | 60 | 279 | 1.7 | 2.6 | 0.00 | 0.16 | 0.16 | 84 | 1015.9 |
| 20260506233655 | 60 | 24 | 0.0 | 0.9 | 0.00 | 0.16 | 0.16 | 84 | 1016.0 |
| 20260506233151 | 60 | 26 | 0.0 | 1.7 | 0.00 | 0.16 | 0.16 | 84 | 1015.9 |
| 20260506232647 | 60 | 354 | 1.7 | 1.7 | 0.00 | 0.16 | 0.16 | 83 | 1015.7 |
| 20260506232143 | 60 | 55 | 0.9 | 0.9 | 0.00 | 0.16 | 0.16 | 83 | 1015.7 |
| 20260506231640 | 60 | 14 | 0.9 | 1.7 | 0.00 | 0.16 | 0.16 | 82 | 1015.4 |
| 20260506231139 | 61 | 262 | 0.0 | 0.9 | 0.00 | 0.16 | 0.16 | 81 | 1015.3 |
| 20260506230635 | 61 | 60 | 0.9 | 0.9 | 0.00 | 0.16 | 0.16 | 81 | 1015.3 |
| 20260506230132 | 61 | 298 | 1.7 | 1.7 | 0.00 | 0.16 | 0.16 | 81 | 1015.4 |
| 20260506225628 | 61 | 290 | 2.6 | 2.6 | 0.00 | 0.16 | 0.16 | 81 | 1014.9 |
| 20260506225125 | 60 | 60 | 2.6 | 5.2 | 0.00 | 0.16 | 0.16 | 81 | 1015.2 |
| 20260506224622 | 60 | 342 | 0.0 | 0.9 | 0.00 | 0.16 | 0.16 | 82 | 1015.3 |
| 20260506224118 | 60 | 313 | 0.9 | 0.9 | 0.00 | 0.16 | 0.16 | 82 | 1015.7 |
| 20260506223614 | 60 | 21 | 2.6 | 4.3 | 0.00 | 0.16 | 0.16 | 81 | 1015.2 |
| 20260506223110 | 60 | 101 | 0.0 | 0.0 | 0.00 | 0.16 | 0.16 | 82 | 1015.4 |
| 20260506222608 | 60 | 20 | 3.5 | 4.3 | 0.00 | 0.16 | 0.16 | 81 | 1015.4 |
| 20260506222104 | 60 | 312 | 2.6 | 2.6 | 0.00 | 0.16 | 0.16 | 81 | 1015.4 |
| 20260506221602 | 60 | 331 | 0.9 | 1.7 | 0.00 | 0.16 | 0.16 | 81 | 1015.6 |
| 20260506221100 | 60 | 24 | 2.6 | 6.1 | 0.00 | 0.16 | 0.16 | 80 | 1015.2 |
| 20260506220555 | 60 | 342 | 3.5 | 4.3 | 0.00 | 0.16 | 0.16 | 80 | 1014.7 |
| 20260506220051 | 61 | 5 | 2.6 | 4.3 | 0.00 | 0.16 | 0.16 | 80 | 1014.9 |
| 20260506215548 | 61 | 352 | 0.0 | 0.9 | 0.00 | 0.16 | 0.16 | 80 | 1015.1 |
| 20260506215044 | 61 | 294 | 0.9 | 0.9 | 0.00 | 0.16 | 0.16 | 80 | 1014.7 |
| 20260506214541 | 61 | 358 | 0.0 | 0.0 | 0.00 | 0.16 | 0.16 | 80 | 1015.4 |
| 20260506214038 | 61 | 309 | 1.7 | 1.7 | 0.00 | 0.16 | 0.16 | 80 | 1014.9 |
| 20260506213536 | 61 | 298 | 2.6 | 6.1 | 0.00 | 0.16 | 0.16 | 80 | 1015.0 |
| 20260506213033 | 61 | 0 | 2.6 | 2.6 | 0.00 | 0.16 | 0.16 | 79 | 1015.1 |
| 20260506212530 | 61 | 275 | 1.7 | 1.7 | 0.00 | 0.16 | 0.16 | 79 | 1015.1 |
| 20260506212025 | 62 | 280 | 2.6 | 2.6 | 0.00 | 0.16 | 0.16 | 78 | 1015.0 |
| 20260506211521 | 62 | 19 | 0.9 | 1.7 | 0.00 | 0.16 | 0.16 | 77 | 1015.1 |
| 20260506211018 | 62 | 254 | 0.0 | 0.9 | 0.00 | 0.16 | 0.16 | 78 | 1015.3 |
| 20260506210515 | 62 | 333 | 0.9 | 0.9 | 0.00 | 0.16 | 0.16 | 79 | 1015.1 |
| 20260506210011 | 61 | 278 | 1.7 | 2.6 | 0.00 | 0.16 | 0.16 | 80 | 1015.3 |
| 20260506205508 | 61 | 310 | 0.9 | 0.9 | 0.00 | 0.16 | 0.16 | 80 | 1015.3 |
| 20260506205003 | 61 | 262 | 2.6 | 2.6 | 0.00 | 0.16 | 0.16 | 80 | 1015.4 |
| 20260506204502 | 61 | 300 | 2.6 | 2.6 | 0.00 | 0.16 | 0.16 | 79 | 1015.4 |
| 20260506203958 | 61 | 298 | 1.7 | 1.7 | 0.00 | 0.16 | 0.16 | 79 | 1015.5 |
| 20260506203456 | 62 | 296 | 2.6 | 4.3 | 0.00 | 0.16 | 0.16 | 79 | 1015.5 |
| 20260506202953 | 62 | 337 | 0.9 | 0.9 | 0.00 | 0.16 | 0.16 | 80 | 1015.4 |
| 20260506202450 | 60 | 267 | 0.0 | 0.9 | 0.00 | 0.16 | 0.16 | 81 | 1015.5 |
| 20260506201946 | 60 | 340 | 1.7 | 1.7 | 0.00 | 0.16 | 0.16 | 81 | 1015.8 |
| 20260506201444 | 60 | 317 | 1.7 | 1.7 | 0.00 | 0.16 | 0.16 | 81 | 1015.7 |
| 20260506200940 | 60 | 293 | 5.2 | 7.0 | 0.00 | 0.16 | 0.16 | 81 | 1016.0 |
| 20260506200437 | 60 | 275 | 2.6 | 6.1 | 0.00 | 0.16 | 0.16 | 82 | 1016.1 |
| 20260506195933 | 60 | 232 | 1.7 | 1.7 | 0.00 | 0.16 | 0.16 | 82 | 1016.0 |
| 20260506195430 | 59 | 15 | 1.7 | 1.7 | 0.00 | 0.16 | 0.16 | 84 | 1015.9 |
| 20260506194927 | 59 | 34 | 2.6 | 2.6 | 0.00 | 0.16 | 0.16 | 84 | 1015.6 |
| 20260506194424 | 59 | 299 | 2.6 | 4.3 | 0.00 | 0.16 | 0.16 | 85 | 1015.9 |
| 20260506193921 | 59 | 317 | 1.7 | 2.6 | 0.00 | 0.16 | 0.16 | 86 | 1015.9 |
| 20260506193418 | 58 | 291 | 0.9 | 0.9 | 0.00 | 0.16 | 0.16 | 87 | 1016.1 |
| 20260506192914 | 58 | 321 | 2.6 | 4.3 | 0.00 | 0.16 | 0.16 | 88 | 1016.4 |
| 20260506192411 | 57 | 300 | 0.9 | 0.9 | 0.00 | 0.16 | 0.16 | 88 | 1016.2 |
| 20260506191908 | 57 | 292 | 0.9 | 0.9 | 0.00 | 0.16 | 0.16 | 88 | 1016.5 |
| 20260506191404 | 57 | 301 | 3.5 | 4.3 | 0.00 | 0.16 | 0.16 | 88 | 1016.3 |
| 20260506190902 | 57 | 319 | 1.7 | 1.7 | 0.00 | 0.16 | 0.16 | 88 | 1016.3 |
| 20260506190358 | 57 | 317 | 1.7 | 1.7 | 0.00 | 0.16 | 0.16 | 88 | 1016.2 |
| 20260506185855 | 57 | 341 | 1.7 | 2.6 | 0.00 | 0.16 | 0.16 | 89 | 1016.3 |
| 20260506185352 | 57 | 305 | 0.0 | 0.9 | 0.00 | 0.16 | 0.16 | 89 | 1016.4 |
| 20260506184849 | 57 | 344 | 0.9 | 0.9 | 0.00 | 0.16 | 0.16 | 89 | 1016.4 |
| 20260506184346 | 57 | 343 | 1.7 | 2.6 | 0.00 | 0.16 | 0.16 | 89 | 1016.0 |
| 20260506183843 | 57 | 356 | 0.0 | 0.9 | 0.00 | 0.16 | 0.16 | 91 | 1015.8 |
| 20260506183338 | 57 | 123 | 0.0 | 0.0 | 0.00 | 0.16 | 0.16 | 91 | 1015.6 |
| 20260506182836 | 56 | 179 | 0.9 | 1.7 | 0.00 | 0.16 | 0.16 | 93 | 1015.3 |
| 20260506182333 | 56 | 296 | 0.0 | 0.9 | 0.00 | 0.16 | 0.16 | 94 | 1014.8 |
| 20260506181831 | 55 | 294 | 0.9 | 0.9 | 0.00 | 0.16 | 0.16 | 95 | 1014.6 |
| 20260506181329 | 56 | 262 | 1.7 | 1.7 | 0.00 | 0.16 | 0.16 | 96 | 1014.6 |
| 20260506180825 | 55 | 277 | 0.9 | 1.7 | 0.00 | 0.16 | 0.16 | 96 | 1014.9 |
| 20260506180321 | 55 | 13 | 5.2 | 7.8 | 0.00 | 0.16 | 0.16 | 96 | 1014.6 |
| 20260506175818 | 55 | 26 | 0.9 | 1.7 | 0.00 | 0.16 | 0.16 | 97 | 1014.7 |
| 20260506175315 | 54 | 353 | 0.9 | 1.7 | 0.00 | 0.16 | 0.16 | 97 | 1015.0 |
| 20260506174812 | 54 | 137 | 1.7 | 2.6 | 0.00 | 0.16 | 0.16 | 97 | 1015.4 |
| 20260506174309 | 54 | 9 | 2.6 | 5.2 | 0.00 | 0.16 | 0.16 | 97 | 1015.5 |
| 20260506173807 | 55 | 300 | 1.7 | 1.7 | 0.00 | 0.16 | 0.16 | 97 | 1015.6 |
| 20260506173303 | 55 | 231 | 1.7 | 2.6 | 0.00 | 0.16 | 0.16 | 97 | 1015.9 |
| 20260506172800 | 54 | 13 | 0.0 | 0.9 | 0.05 | 0.16 | 0.16 | 97 | 1016.0 |
| 20260506172257 | 54 | 12 | 0.9 | 1.7 | 0.05 | 0.16 | 0.16 | 97 | 1015.9 |
| 20260506171754 | 54 | 86 | 0.0 | 0.0 | 0.00 | 0.15 | 0.15 | 97 | 1015.9 |
| 20260506171251 | 54 | 342 | 0.9 | 0.9 | 0.00 | 0.15 | 0.15 | 97 | 1015.9 |
| 20260506170749 | 54 | 273 | 0.0 | 0.9 | 0.00 | 0.15 | 0.15 | 97 | 1016.0 |
| 20260506170245 | 53 | 329 | 8.7 | 9.6 | 0.00 | 0.15 | 0.15 | 96 | 1015.8 |
| 20260506165744 | 53 | 22 | 5.2 | 7.8 | 0.00 | 0.15 | 0.15 | 96 | 1015.3 |
| 20260506165240 | 53 | 279 | 2.6 | 2.6 | 0.00 | 0.15 | 0.15 | 97 | 1015.6 |
| 20260506164737 | 54 | 24 | 2.6 | 2.6 | 0.00 | 0.15 | 0.15 | 96 | 1015.9 |
| 20260506164234 | 54 | 355 | 2.6 | 4.3 | 0.00 | 0.15 | 0.15 | 96 | 1015.8 |
| 20260506163731 | 54 | 336 | 4.3 | 7.0 | 0.00 | 0.15 | 0.15 | 96 | 1016.0 |
| 20260506163226 | 55 | 306 | 2.6 | 4.3 | 0.00 | 0.15 | 0.15 | 96 | 1016.1 |
| 20260506162722 | 55 | 293 | 0.0 | 0.9 | 0.00 | 0.15 | 0.15 | 97 | 1016.2 |
| 20260506162220 | 56 | 328 | 0.9 | 0.9 | 0.00 | 0.15 | 0.15 | 96 | 1016.0 |
| 20260506161712 | 54 | 313 | 0.9 | 1.7 | 0.00 | 0.15 | 0.15 | 97 | 1016.3 |
| 20260506161209 | 55 | 160 | 2.6 | 4.3 | 0.00 | 0.15 | 0.15 | 96 | 1016.4 |
| 20260506160706 | 54 | 322 | 0.0 | 0.0 | 0.00 | 0.15 | 0.15 | 96 | 1016.1 |
| 20260506160203 | 54 | 194 | 0.9 | 1.7 | 0.00 | 0.15 | 0.15 | 95 | 1016.4 |
| 20260506155701 | 54 | 303 | 1.7 | 1.7 | 0.00 | 0.15 | 0.15 | 95 | 1016.0 |
| 20260506155158 | 54 | 345 | 0.9 | 1.7 | 0.00 | 0.15 | 0.15 | 95 | 1015.4 |
| 20260506153306 | 54 | 258 | 0.9 | 0.9 | 0.12 | 0.02 | 0.02 | 88 | 1018.0 |
| 20260506152802 | 55 | 259 | 0.9 | 0.9 | 0.00 | 0.00 | 0.00 | 87 | 1017.6 |
| 20260506152300 | 55 | 275 | 0.9 | 0.9 | 0.00 | 0.00 | 0.00 | 87 | 1017.4 |
| 20260506151759 | 54 | 323 | 0.9 | 0.9 | 0.00 | 0.00 | 0.00 | 86 | 1017.4 |
| 20260506151255 | 55 | 252 | 1.7 | 2.6 | 0.00 | 0.00 | 0.00 | 86 | 1016.6 |
| 20260506150751 | 55 | 0 | 0.9 | 2.6 | 0.00 | 0.00 | 0.00 | 86 | 1016.8 |
| 20260506150249 | 55 | 287 | 0.9 | 1.7 | 0.00 | 0.00 | 0.00 | 85 | 1016.3 |
| 20260506145745 | 55 | 1 | 0.9 | 1.7 | 0.00 | 0.00 | 0.00 | 85 | 1016.3 |
| 20260506145242 | 55 | 305 | 0.9 | 0.9 | 0.00 | 0.00 | 0.00 | 85 | 1015.5 |
| 20260506144740 | 55 | 326 | 3.5 | 4.3 | 0.00 | 0.00 | 0.00 | 84 | 1015.7 |
| 20260506144236 | 55 | 322 | 1.7 | 2.6 | 0.00 | 0.00 | 0.00 | 84 | 1016.1 |
| 20260506143734 | 55 | 306 | 2.6 | 4.3 | 0.00 | 0.00 | 0.00 | 84 | 1016.2 |
| 20260506143231 | 55 | 301 | 0.9 | 1.7 | 0.00 | 0.00 | 0.00 | 84 | 1016.2 |
| 20260506142730 | 55 | 42 | 0.9 | 1.7 | 0.00 | 0.00 | 0.00 | 84 | 1016.1 |
| 20260506142227 | 54 | 355 | 0.0 | 0.0 | 0.00 | 0.00 | 0.00 | 85 | 1015.9 |
| 20260506141725 | 54 | 326 | 4.3 | 7.0 | 0.00 | 0.00 | 0.00 | 85 | 1015.8 |
| 20260506141223 | 54 | 346 | 2.6 | 4.3 | 0.00 | 0.00 | 0.00 | 85 | 1015.8 |
| 20260506140721 | 54 | 353 | 2.6 | 4.3 | 0.00 | 0.00 | 0.00 | 86 | 1015.7 |
| 20260506140217 | 54 | 357 | 4.3 | 6.1 | 0.00 | 0.00 | 0.00 | 86 | 1015.5 |
| 20260506135714 | 54 | 228 | 2.6 | 4.3 | 0.00 | 0.00 | 0.00 | 87 | 1015.5 |
| 20260506135211 | 54 | 21 | 0.9 | 1.7 | 0.00 | 0.00 | 0.00 | 87 | 1015.2 |
| 20260506134707 | 54 | 320 | 0.9 | 0.9 | 0.00 | 0.00 | 0.00 | 88 | 1015.3 |
| 20260506134204 | 54 | 315 | 4.3 | 6.1 | 0.00 | 0.00 | 0.00 | 88 | 1015.2 |
| 20260506133701 | 54 | 353 | 5.2 | 7.8 | 0.00 | 0.00 | 0.00 | 87 | 1015.2 |
| 20260506133157 | 54 | 329 | 1.7 | 2.6 | 0.00 | 0.00 | 0.00 | 87 | 1015.1 |
| 20260506132655 | 54 | 316 | 2.6 | 5.2 | 0.00 | 0.00 | 0.00 | 87 | 1015.0 |
| 20260506132151 | 54 | 255 | 0.9 | 0.9 | 0.00 | 0.00 | 0.00 | 87 | 1014.9 |
| 20260506131649 | 54 | 334 | 1.7 | 2.6 | 0.00 | 0.00 | 0.00 | 86 | 1015.1 |
| 20260506131145 | 54 | 345 | 2.6 | 4.3 | 0.00 | 0.00 | 0.00 | 86 | 1014.7 |
| 20260506130642 | 54 | 327 | 1.7 | 2.6 | 0.00 | 0.00 | 0.00 | 86 | 1015.0 |
| 20260506130139 | 54 | 11 | 2.6 | 4.3 | 0.00 | 0.00 | 0.00 | 86 | 1014.9 |
| 20260506125637 | 54 | 268 | 2.6 | 2.6 | 0.00 | 0.00 | 0.00 | 86 | 1015.0 |
| 20260506125135 | 54 | 14 | 2.6 | 5.2 | 0.00 | 0.00 | 0.00 | 86 | 1014.8 |
| 20260506124633 | 54 | 223 | 1.7 | 4.3 | 0.00 | 0.00 | 0.00 | 86 | 1014.6 |
| 20260506124131 | 54 | 300 | 3.5 | 6.1 | 0.00 | 0.00 | 0.00 | 85 | 1014.1 |
| 20260506123628 | 54 | 339 | 0.9 | 1.7 | 0.00 | 0.00 | 0.00 | 85 | 1014.4 |
| 20260506123127 | 55 | 291 | 6.1 | 7.8 | 0.00 | 0.00 | 0.00 | 84 | 1014.4 |
| 20260506122623 | 55 | 355 | 6.1 | 7.8 | 0.00 | 0.00 | 0.00 | 84 | 1014.5 |
| 20260506122120 | 55 | 353 | 1.7 | 2.6 | 0.00 | 0.00 | 0.00 | 83 | 1014.3 |
| 20260506121618 | 55 | 265 | 3.5 | 4.3 | 0.00 | 0.00 | 0.00 | 83 | 1014.4 |
| 20260506121114 | 55 | 352 | 3.5 | 6.1 | 0.00 | 0.00 | 0.00 | 83 | 1014.3 |
| 20260506120612 | 55 | 310 | 2.6 | 4.3 | 0.00 | 0.00 | 0.00 | 83 | 1014.1 |
| 20260506120109 | 55 | 330 | 3.5 | 6.1 | 0.00 | 0.00 | 0.00 | 83 | 1014.1 |
| 20260506115608 | 55 | 275 | 1.7 | 1.7 | 0.00 | 0.00 | 0.00 | 82 | 1014.0 |
| 20260506115106 | 55 | 321 | 4.3 | 5.2 | 0.00 | 0.00 | 0.00 | 82 | 1013.8 |
| 20260506114602 | 56 | 267 | 2.6 | 4.3 | 0.00 | 0.00 | 0.00 | 81 | 1013.9 |
| 20260506114101 | 56 | 337 | 2.6 | 4.3 | 0.00 | 0.00 | 0.00 | 81 | 1013.5 |
| 20260506113558 | 55 | 330 | 2.6 | 2.6 | 0.00 | 0.00 | 0.00 | 81 | 1013.5 |
| 20260506113055 | 55 | 288 | 1.7 | 1.7 | 0.00 | 0.00 | 0.00 | 81 | 1013.3 |
| 20260506112552 | 55 | 8 | 3.5 | 5.2 | 0.00 | 0.00 | 0.00 | 80 | 1013.6 |
| 20260506112049 | 56 | 341 | 4.3 | 5.2 | 0.00 | 0.00 | 0.00 | 80 | 1013.5 |
| 20260506111547 | 56 | 277 | 3.5 | 5.2 | 0.00 | 0.00 | 0.00 | 80 | 1013.3 |
| 20260506111044 | 56 | 317 | 6.1 | 7.8 | 0.00 | 0.00 | 0.00 | 80 | 1013.3 |
| 20260506110542 | 56 | 281 | 6.1 | 7.8 | 0.00 | 0.00 | 0.00 | 79 | 1013.2 |
| 20260506110039 | 56 | 287 | 3.5 | 4.3 | 0.00 | 0.00 | 0.00 | 79 | 1013.1 |
| 20260506105535 | 56 | 339 | 2.6 | 2.6 | 0.00 | 0.00 | 0.00 | 79 | 1013.1 |
| 20260506105032 | 57 | 357 | 2.6 | 4.3 | 0.00 | 0.00 | 0.00 | 79 | 1012.9 |
| 20260506104530 | 57 | 306 | 3.5 | 5.2 | 0.00 | 0.00 | 0.00 | 79 | 1012.9 |
| 20260506104028 | 57 | 263 | 2.6 | 2.6 | 0.00 | 0.00 | 0.00 | 79 | 1012.7 |
| 20260506103525 | 57 | 304 | 3.5 | 5.2 | 0.00 | 0.00 | 0.00 | 78 | 1012.7 |
| 20260506103022 | 58 | 335 | 2.6 | 5.2 | 0.00 | 0.00 | 0.00 | 77 | 1012.4 |
| 20260506102520 | 58 | 341 | 2.6 | 4.3 | 0.00 | 0.00 | 0.00 | 77 | 1012.3 |
| 20260506102017 | 58 | 311 | 3.5 | 4.3 | 0.00 | 0.00 | 0.00 | 77 | 1012.3 |
| 20260506101513 | 58 | 290 | 4.3 | 6.1 | 0.00 | 0.00 | 0.00 | 76 | 1012.0 |
| 20260506101011 | 58 | 352 | 2.6 | 2.6 | 0.00 | 0.00 | 0.00 | 77 | 1011.9 |
| 20260506100509 | 58 | 283 | 1.7 | 2.6 | 0.00 | 0.00 | 0.00 | 77 | 1012.0 |
| 20260506100007 | 59 | 309 | 0.9 | 0.9 | 0.00 | 0.00 | 0.00 | 77 | 1012.1 |
| 20260506095505 | 59 | 330 | 3.5 | 6.1 | 0.00 | 0.00 | 0.00 | 77 | 1012.1 |
| 20260506095000 | 59 | 328 | 1.7 | 1.7 | 0.00 | 0.00 | 0.00 | 77 | 1012.2 |
| 20260506094459 | 58 | 264 | 0.0 | 0.0 | 0.00 | 0.00 | 0.00 | 78 | 1012.0 |
| 20260506093956 | 59 | 310 | 2.6 | 2.6 | 0.00 | 0.00 | 0.00 | 78 | 1011.9 |
| 20260506093455 | 59 | 11 | 1.7 | 1.7 | 0.00 | 0.00 | 0.00 | 77 | 1012.0 |
| 20260506092952 | 59 | 275 | 0.0 | 0.0 | 0.00 | 0.00 | 0.00 | 78 | 1011.9 |
| 20260506092450 | 58 | 269 | 0.0 | 0.9 | 0.00 | 0.00 | 0.00 | 78 | 1012.1 |
| 20260506091946 | 59 | 358 | 1.7 | 2.6 | 0.00 | 0.00 | 0.00 | 78 | 1011.9 |
| 20260506091444 | 59 | 310 | 0.9 | 1.7 | 0.00 | 0.00 | 0.00 | 78 | 1011.9 |
| 20260506090941 | 59 | 310 | 1.7 | 1.7 | 0.00 | 0.00 | 0.00 | 78 | 1011.8 |
| 20260506090439 | 59 | 315 | 0.9 | 1.7 | 0.00 | 0.00 | 0.00 | 78 | 1011.7 |
| 20260506085935 | 59 | 324 | 3.5 | 4.3 | 0.00 | 0.00 | 0.00 | 78 | 1011.9 |
| 20260506085432 | 59 | 301 | 0.0 | 0.9 | 0.00 | 0.00 | 0.00 | 78 | 1011.5 |
| 20260506084928 | 59 | 36 | 0.9 | 0.9 | 0.00 | 0.00 | 0.00 | 78 | 1011.4 |
| 20260506084426 | 59 | 338 | 1.7 | 2.6 | 0.00 | 0.00 | 0.00 | 78 | 1011.5 |
| 20260506083921 | 59 | 270 | 2.6 | 4.3 | 0.00 | 0.00 | 0.00 | 78 | 1011.4 |
| 20260506083419 | 59 | 329 | 0.9 | 0.9 | 0.00 | 0.00 | 0.00 | 78 | 1011.3 |
| 20260506082916 | 59 | 282 | 0.9 | 0.9 | 0.00 | 0.00 | 0.00 | 78 | 1011.4 |
| 20260506082413 | 60 | 326 | 1.7 | 1.7 | 0.00 | 0.00 | 0.00 | 78 | 1011.1 |
| 20260506081908 | 60 | 25 | 0.0 | 0.9 | 0.00 | 0.00 | 0.00 | 78 | 1011.0 |
| 20260506081408 | 60 | 285 | 0.0 | 0.0 | 0.00 | 0.00 | 0.00 | 79 | 1011.0 |
| 20260506080904 | 60 | 324 | 0.9 | 0.9 | 0.00 | 0.00 | 0.00 | 79 | 1011.1 |
| 20260506080401 | 60 | 307 | 0.9 | 1.7 | 0.00 | 0.00 | 0.00 | 79 | 1011.1 |
| 20260506073345 | 60 | 314 | 1.7 | 2.6 | 0.00 | 0.00 | 0.00 | 79 | 1011.3 |
| 20260506072841 | 61 | 288 | 2.6 | 2.6 | 0.00 | 0.00 | 0.00 | 79 | 1011.3 |
| 20260506072339 | 61 | 276 | 2.6 | 2.6 | 0.00 | 0.00 | 0.00 | 79 | 1011.2 |
| 20260506071837 | 61 | 3 | 0.9 | 2.6 | 0.00 | 0.00 | 0.00 | 79 | 1011.2 |
| 20260506071335 | 60 | 341 | 1.7 | 1.7 | 0.00 | 0.00 | 0.00 | 79 | 1011.3 |
| 20260506070831 | 61 | 278 | 3.5 | 6.1 | 0.00 | 0.00 | 0.00 | 79 | 1011.5 |
| 20260506070328 | 61 | 2 | 2.6 | 2.6 | 0.00 | 0.00 | 0.00 | 80 | 1011.1 |